Terminal Aerodrome Forecast
Issued by NWS Brownsville, TX

Home | Current Version | Previous Version | Text Only | Print | Product List | Glossary On
Versions: 1 2 3 4 5 6 7 8 9 10 11 12 13 14 15 16 17 18 19 20
000
FTUS44 KBRO 292322
TAFHRL
TAF
KHRL 292322Z 3000/3024 13015G23KT P6SM SKC
     FM300200 15010KT P6SM SCT030
     FM300800 14006KT 6SM HZ SCT015
      TEMPO 3008/3012 5SM HZ BKN015
     FM301500 15010G15KT P6SM SCT020=

USA.gov is the U.S. government's official web portal to all federal, state and local government web resources and services.